Weather History for KSLK - May, 2013

Change the Weather History Date:

Friday, May 31, 2013

  Actual Average Record
Temperature  
Mean Temperature 70 °F 55 °F  
Max Temperature 87 °F 68 °F 87 °F (2013)
Min Temperature 52 °F 43 °F 27 °F (1961)
Cooling Degree Days 5 0  
Month to date cooling degree days 10 3  
Year to date cooling degree days 10 3  
Growing Degree Days 19 (Base 50)    
Moisture  
Dew Point 56 °F    
Average Humidity 67    
Maximum Humidity 100    
Minimum Humidity 34    
Precipitation  
Precipitation 0.00 in 0.12 in 1.40 in (2008)
Month to date precipitation 5.74 3.44  
Year to date precipitation 11.00 12.35  
Sea Level Pressure  
Sea Level Pressure 30.04 in    
Wind  
Wind Speed 6 mph (SW)    
Max Wind Speed 17 mph    
Max Gust Speed 26 mph    
Visibility 7 miles    
Events Fog    
T = Trace of Precipitation, MM = Missing Value Source: NWS Daily Summary

Daily Weather History Graph

Daily Weather History Graph

Search for Another Location

Airport or City:

Trip Planner

Search our weather history database for the weather conditions in past years. The results will help you decide how hot, cold, wet, or windy it might be!

Date:

Astronomy

May. 31, 2013 Rise Set
Actual Time 5:16 AM EDT 8:33 PM EDT
Civil Twilight 4:40 AM EDT 9:09 PM EDT
Nautical Twilight 3:54 AM EDT 9:55 PM EDT
Astronomical Twilight 2:56 AM EDT 10:53 PM EDT
Moon 12:55 AM EDT (5/31) 12:40 PM EDT (5/31)
Length of Visible Light 16h 28m
Length of Day
15h 17m
Waning Gibbous, 51% of the Moon is Illuminated
May 31
Waning Gibbous
May 31
Last Quarter
Jun 8
New
Jun 16
First Quarter
Jun 23
Full

Hourly Weather History & Observations

Time (EDT) Temp. Heat Index Dew Point Humidity Pressure Visibility Wind Dir Wind Speed Gust Speed Precip Events Conditions
12:51 AM 57.9 °F - 57.0 °F 97% 30.09 in 3.0 mi Calm Calm - N/A   Clear
1:51 AM 57.9 °F - 57.9 °F 100% 30.08 in 6.0 mi South 3.5 mph - N/A   Clear
2:10 AM 57.2 °F - 57.2 °F 100% 30.10 in 0.8 mi Calm Calm - N/A   Clear
2:27 AM 53.6 °F - 53.6 °F 100% 30.10 in 2.0 mi Calm Calm - N/A   Clear
2:43 AM 55.4 °F - 55.4 °F 100% 30.10 in 4.0 mi Calm Calm - N/A   Clear
2:51 AM 54.0 °F - 54.0 °F 100% 30.08 in 6.0 mi Calm Calm - N/A   Clear
3:00 AM 53.6 °F - 51.8 °F 94% 30.10 in 1.8 mi Calm Calm - N/A   Clear
3:07 AM 53.6 °F - 53.6 °F 100% 30.10 in 3.0 mi Calm Calm - N/A   Clear
3:51 AM 55.9 °F - 55.0 °F 97% 30.07 in 5.0 mi SSW 3.5 mph - N/A   Clear
4:42 AM 53.6 °F - 51.8 °F 94% 30.10 in 1.8 mi Calm Calm - N/A   Clear
4:51 AM 53.1 °F - 52.0 °F 96% 30.08 in 0.5 mi Calm Calm - N/A Fog Fog
4:57 AM 51.8 °F - 51.8 °F 100% 30.10 in 2.0 mi Calm Calm - N/A   Clear
5:04 AM 51.8 °F - 51.8 °F 100% 30.10 in 6.0 mi Calm Calm - N/A   Clear
5:51 AM 53.1 °F - 52.0 °F 96% 30.09 in 4.0 mi Calm Calm - N/A   Clear
6:51 AM 60.1 °F - 57.9 °F 93% 30.09 in 5.0 mi SSW 3.5 mph - N/A   Scattered Clouds
7:51 AM 68.0 °F - 61.0 °F 78% 30.08 in 9.0 mi WSW 6.9 mph - N/A   Clear
8:51 AM 72.0 °F - 61.0 °F 68% 30.08 in 10.0 mi WSW 6.9 mph - N/A   Overcast
9:51 AM 75.9 °F - 62.1 °F 62% 30.06 in 10.0 mi SW 10.4 mph 17.3 mph N/A   Partly Cloudy
10:51 AM 81.0 °F 81.9 °F 62.1 °F 52% 30.05 in 10.0 mi WSW 11.5 mph 18.4 mph N/A   Clear
11:51 AM 82.0 °F 82.7 °F 61.0 °F 49% 30.04 in 10.0 mi WSW 10.4 mph - N/A   Partly Cloudy
12:51 PM 84.0 °F 84.0 °F 60.1 °F 44% 30.02 in 10.0 mi SW 15.0 mph 26.5 mph N/A   Partly Cloudy
1:51 PM 86.0 °F 85.0 °F 57.9 °F 38% 30.00 in 10.0 mi SW 12.7 mph 23.0 mph N/A   Clear
2:51 PM 86.0 °F 85.4 °F 59.0 °F 40% 30.00 in 10.0 mi WSW 10.4 mph 19.6 mph N/A   Partly Cloudy
3:51 PM 87.1 °F 86.1 °F 57.9 °F 37% 29.98 in 10.0 mi WSW 10.4 mph 18.4 mph N/A   Partly Cloudy
4:51 PM 84.0 °F 83.0 °F 55.9 °F 38% 29.95 in 10.0 mi SW 12.7 mph - N/A   Partly Cloudy
5:51 PM 84.9 °F 83.2 °F 53.1 °F 33% 29.94 in 10.0 mi WSW 15.0 mph 19.6 mph N/A   Clear
6:51 PM 82.9 °F 81.8 °F 53.1 °F 36% 29.94 in 8.0 mi West 9.2 mph - N/A   Clear
7:51 PM 79.0 °F - 57.0 °F 47% 29.94 in 10.0 mi WSW 5.8 mph - N/A   Clear
8:51 PM 71.1 °F - 57.9 °F 63% 29.94 in 10.0 mi WSW 3.5 mph - N/A   Clear
9:51 PM 64.9 °F - 57.9 °F 78% 29.96 in 10.0 mi Calm Calm - N/A   Clear
10:51 PM 62.1 °F - 57.9 °F 86% 29.96 in 9.0 mi Calm Calm - N/A   Clear
11:51 PM 60.1 °F - 57.0 °F 90% 29.96 in 8.0 mi SSW 3.5 mph - N/A   Clear